• In Czech Republic
  • List of Countries
  • For 7 days
  • Water Temperature
  • Satellite Maps
  • Weather Map
  • Weather Widgets
  • user-avatar
    Login

    Hourly Weather Linz

    Today, 16 July, Monday

    Time Temperature Precipitation Wind Pressure Humidity
    00:00 +16°C° 0 mm 1 mps 733 mmHg 85%
    01:00 +16°C° 0 mm 1 mps 733 mmHg 85%
    02:00 +15°C° 0 mm 1 mps 733 mmHg 86%
    03:00 +15°C° 0 mm 1 mps 733 mmHg 86%
    04:00 +15°C° 0 mm 1 mps 733 mmHg 86%
    05:00 +16°C° 0 mm 1 mps 733 mmHg 83%
    06:00 +19°C° 0 mm 1 mps 733 mmHg 79%
    07:00 +20°C° 0 mm 1 mps 733 mmHg 77%
    08:00 +21°C° 0.3 mm 2 mps 732 mmHg 75%
    09:00 +23°C° 0.3 mm 2 mps 732 mmHg 73%
    10:00 +24°C° 0.3 mm 2 mps 732 mmHg 70%
    11:00 +26°C° 0.6 mm 1 mps 732 mmHg 61%
    12:00 +27°C° 0.6 mm 1 mps 732 mmHg 59%
    13:00 +27°C° 0.6 mm 1 mps 731 mmHg 57%
    14:00 +27°C° 0.3 mm 1 mps 731 mmHg 57%
    15:00 +27°C° 0.3 mm 1 mps 731 mmHg 57%
    16:00 +27°C° 0.3 mm 2 mps 731 mmHg 57%
    17:00 +25°C° 0.3 mm 1 mps 731 mmHg 65%
    18:00 +24°C° 0.3 mm 1 mps 730 mmHg 73%
    19:00 +21°C° 0.3 mm 0 mps 730 mmHg 81%
    20:00 +21°C° 0.3 mm 1 mps 730 mmHg 84%
    21:00 +20°C° 0.3 mm 1 mps 730 mmHg 87%
    22:00 +18°C° 0.3 mm 1 mps 730 mmHg 90%
    23:00 +18°C° 0.1 mm 1 mps 731 mmHg 91%

    Tomorrow, 17 July, Tuesday

    Time Temperature Precipitation Wind Pressure Humidity
    00:00 +16°C° 0.1 mm 1 mps 731 mmHg 92%
    01:00 +16°C° 0.1 mm 1 mps 731 mmHg 93%
    02:00 +16°C° 0 mm 1 mps 731 mmHg 93%
    03:00 +15°C° 0 mm 1 mps 731 mmHg 94%
    04:00 +15°C° 0 mm 1 mps 731 mmHg 94%
    05:00 +16°C° 0 mm 1 mps 731 mmHg 92%
    06:00 +17°C° 0 mm 2 mps 731 mmHg 90%
    07:00 +18°C° 0 mm 2 mps 731 mmHg 88%
    08:00 +20°C° 0.4 mm 2 mps 732 mmHg 84%
    09:00 +21°C° 0.4 mm 3 mps 732 mmHg 80%
    10:00 +22°C° 0.4 mm 3 mps 732 mmHg 75%
    11:00 +23°C° 0.4 mm 4 mps 732 mmHg 71%
    12:00 +25°C° 0.4 mm 4 mps 731 mmHg 66%
    13:00 +26°C° 0.4 mm 4 mps 731 mmHg 61%
    14:00 +26°C° 0.4 mm 4 mps 731 mmHg 63%
    15:00 +26°C° 0.4 mm 4 mps 731 mmHg 65%
    16:00 +26°C° 0.4 mm 4 mps 731 mmHg 67%
    17:00 +23°C° 0.5 mm 4 mps 731 mmHg 73%
    18:00 +22°C° 0.5 mm 3 mps 732 mmHg 79%
    19:00 +20°C° 0.5 mm 3 mps 732 mmHg 85%
    20:00 +19°C° 0.2 mm 3 mps 732 mmHg 87%
    21:00 +18°C° 0.2 mm 2 mps 732 mmHg 90%
    22:00 +17°C° 0.2 mm 2 mps 733 mmHg 92%
    23:00 +17°C° 0.2 mm 2 mps 733 mmHg 92%

    Day after tomorrow, 18 July, Wednesday

    Time Temperature Precipitation Wind Pressure Humidity
    00:00 +16°C° 0.2 mm 2 mps 733 mmHg 92%
    01:00 +16°C° 0.2 mm 2 mps 733 mmHg 93%
    02:00 +16°C° 0.1 mm 2 mps 733 mmHg 93%
    03:00 +16°C° 0.1 mm 2 mps 733 mmHg 93%
    04:00 +15°C° 0.1 mm 2 mps 733 mmHg 93%
    05:00 +17°C° 0.1 mm 2 mps 733 mmHg 91%
    06:00 +18°C° 0.1 mm 2 mps 733 mmHg 89%
    07:00 +19°C° 0.1 mm 2 mps 733 mmHg 87%
    08:00 +20°C° 0.4 mm 3 mps 733 mmHg 83%
    09:00 +22°C° 0.4 mm 3 mps 733 mmHg 80%
    10:00 +23°C° 0.4 mm 4 mps 733 mmHg 77%
    11:00 +23°C° 0.6 mm 4 mps 733 mmHg 74%
    12:00 +25°C° 0.6 mm 4 mps 733 mmHg 72%
    13:00 +26°C° 0.6 mm 4 mps 733 mmHg 70%
    14:00 +26°C° 0.5 mm 4 mps 733 mmHg 70%
    15:00 +26°C° 0.5 mm 3 mps 733 mmHg 71%
    16:00 +26°C° 0.5 mm 3 mps 732 mmHg 71%
    17:00 +25°C° 0.4 mm 3 mps 733 mmHg 76%
    18:00 +24°C° 0.4 mm 2 mps 733 mmHg 81%
    19:00 +23°C° 0.4 mm 2 mps 733 mmHg 85%
    20:00 +20°C° 0.2 mm 2 mps 733 mmHg 87%
    21:00 +19°C° 0.2 mm 2 mps 733 mmHg 89%
    22:00 +18°C° 0.2 mm 2 mps 734 mmHg 91%
    23:00 +18°C° 0.1 mm 2 mps 734 mmHg 92%

    19 July, Thursday

    Time Temperature Precipitation Wind Pressure Humidity
    00:00 +17°C° 0.1 mm 2 mps 734 mmHg 93%
    01:00 +18°C° 0.1 mm 1 mps 734 mmHg 94%
    02:00 +18°C° 0 mm 1 mps 734 mmHg 94%
    03:00 +16°C° 0 mm 1 mps 734 mmHg 94%
    04:00 +16°C° 0 mm 1 mps 734 mmHg 95%
    05:00 +18°C° 0 mm 1 mps 734 mmHg 93%
    06:00 +19°C° 0 mm 1 mps 734 mmHg 91%
    07:00 +20°C° 0 mm 1 mps 734 mmHg 89%
    08:00 +21°C° 0.1 mm 2 mps 734 mmHg 80%
    09:00 +23°C° 0.1 mm 2 mps 734 mmHg 71%
    10:00 +25°C° 0.1 mm 3 mps 734 mmHg 62%
    11:00 +26°C° 0 mm 3 mps 733 mmHg 58%
    12:00 +27°C° 0 mm 3 mps 733 mmHg 53%
    13:00 +28°C° 0 mm 3 mps 733 mmHg 48%
    14:00 +28°C° 0 mm 3 mps 733 mmHg 49%
    15:00 +28°C° 0 mm 2 mps 733 mmHg 50%
    16:00 +28°C° 0 mm 2 mps 733 mmHg 51%
    17:00 +26°C° 0 mm 2 mps 733 mmHg 58%
    18:00 +25°C° 0 mm 1 mps 733 mmHg 66%
    19:00 +23°C° 0 mm 1 mps 733 mmHg 74%
    20:00 +22°C° 0 mm 1 mps 733 mmHg 77%
    21:00 +20°C° 0 mm 1 mps 733 mmHg 79%
    22:00 +19°C° 0 mm 1 mps 734 mmHg 82%
    23:00 +18°C° 0 mm 1 mps 733 mmHg 84%

    20 July, Friday

    Time Temperature Precipitation Wind Pressure Humidity
    00:00 +18°C° 0 mm 1 mps 733 mmHg 85%
    01:00 +16°C° 0 mm 1 mps 733 mmHg 87%
    02:00 +16°C° 0 mm 1 mps 733 mmHg 88%
    03:00 +16°C° 0 mm 1 mps 733 mmHg 89%
    04:00 +15°C° 0 mm 1 mps 733 mmHg 90%
    05:00 +18°C° 0 mm 1 mps 733 mmHg 84%
    06:00 +20°C° 0 mm 1 mps 733 mmHg 79%
    07:00 +21°C° 0 mm 1 mps 733 mmHg 74%
    08:00 +23°C° 0 mm 1 mps 732 mmHg 67%
    09:00 +25°C° 0 mm 1 mps 732 mmHg 61%
    10:00 +27°C° 0 mm 2 mps 732 mmHg 55%
    11:00 +27°C° 0 mm 2 mps 732 mmHg 52%
    12:00 +28°C° 0 mm 2 mps 731 mmHg 49%
    13:00 +29°C° 0 mm 2 mps 731 mmHg 46%
    14:00 +29°C° 0.2 mm 2 mps 731 mmHg 49%
    15:00 +29°C° 0.2 mm 2 mps 731 mmHg 51%
    16:00 +29°C° 0.2 mm 2 mps 730 mmHg 54%
    17:00 +27°C° 0.2 mm 2 mps 730 mmHg 62%
    18:00 +25°C° 0.2 mm 2 mps 730 mmHg 70%
    19:00 +23°C° 0.2 mm 1 mps 730 mmHg 78%
    20:00 +22°C° 0.3 mm 1 mps 730 mmHg 80%
    21:00 +22°C° 0.3 mm 1 mps 730 mmHg 82%
    22:00 +21°C° 0.3 mm 1 mps 730 mmHg 84%
    23:00 +20°C° 0.2 mm 1 mps 730 mmHg 86%

    21 July, Saturday

    Time Temperature Precipitation Wind Pressure Humidity
    00:00 +20°C° 0.2 mm 1 mps 730 mmHg 88%
    01:00 +19°C° 0.2 mm 1 mps 730 mmHg 90%
    02:00 +19°C° 0.3 mm 1 mps 730 mmHg 91%
    03:00 +19°C° 0.3 mm 1 mps 729 mmHg 91%
    04:00 +18°C° 0.3 mm 1 mps 729 mmHg 92%
    05:00 +19°C° 0.7 mm 1 mps 729 mmHg 93%
    06:00 +19°C° 0.7 mm 1 mps 730 mmHg 93%
    07:00 +20°C° 0.7 mm 1 mps 730 mmHg 93%
    08:00 +20°C° 0.7 mm 1 mps 730 mmHg 93%
    09:00 +20°C° 0.7 mm 1 mps 730 mmHg 93%
    10:00 +21°C° 0.7 mm 1 mps 730 mmHg 93%
    11:00 +21°C° 0.8 mm 1 mps 730 mmHg 93%
    12:00 +21°C° 0.8 mm 1 mps 730 mmHg 94%
    13:00 +21°C° 0.8 mm 1 mps 729 mmHg 94%
    14:00 +21°C° 0.6 mm 1 mps 729 mmHg 94%
    15:00 +21°C° 0.6 mm 1 mps 729 mmHg 94%
    16:00 +21°C° 0.6 mm 1 mps 729 mmHg 93%
    17:00 +20°C° 0.4 mm 1 mps 729 mmHg 94%
    18:00 +19°C° 0.4 mm 2 mps 729 mmHg 95%
    19:00 +19°C° 0.4 mm 2 mps 729 mmHg 95%
    20:00 +19°C° 0.3 mm 2 mps 730 mmHg 96%
    21:00 +18°C° 0.3 mm 2 mps 730 mmHg 96%
    22:00 +18°C° 0.3 mm 2 mps 730 mmHg 97%
    23:00 +18°C° 1.5 mm 2 mps 730 mmHg 97%
    Show more